Regional Weather Roundup
Issued by NWS

Home | Current Version | Previous Version | Graphics & Text | Print | Product List | Glossary On
Versions: 1 2 3 4 5 6 7 8 9 10 11 12 13 14 15 16 17 18 19 20 21 22 23 24 25 26 27 28 29 30 31 32 33 34 35 36 37 38 39 40 41 42 43 44 45 46 47 48 49 50
000
ASUS45 KPSR 201110
RWRAZ

ARIZONA REGIONAL HOURLY WEATHER ROUNDUP
NATIONAL WEATHER SERVICE PHOENIX AZ
400 AM MST SAT DEC 20 2014

NOTE: FAIR INDICATES FEW OR NO CLOUDS BELOW 12,000 FEET WITH NO
SIGNIFICANT WEATHER AND/OR OBSTRUCTIONS TO VISIBILITY.

AZZ001>003-036-201200-
NORTHWEST ARIZONA

CITY           SKY/WX    TMP DP  RH WIND       PRES   REMARKS
BULLHEAD CITY  PTCLDY    46  39  76 S3        30.18R
KINGMAN        PTCLDY    34  29  82 SW3       30.15S
$$

AZZ004>008-015-016-018-201200-
NORTH CENTRAL ARIZONA

CITY           SKY/WX    TMP DP  RH WIND       PRES   REMARKS
GRAND CANYON   PTCLDY    23  21  92 CALM      30.17F
PRESCOTT       PTCLDY    30  25  81 SW5       30.16F WCI  25
FLAGSTAFF      PTCLDY    24  22  91 CALM      30.17S
PAYSON         PTCLDY    34  27  75 CALM      30.19R
PAGE           CLEAR     35  28  75 W3        30.16F
$$

AZZ009>014-017-201200-
NORTHEAST ARIZONA

CITY           SKY/WX    TMP DP  RH WIND       PRES   REMARKS
WINSLOW        FOG       29  28  96 E10       30.19F VSB 1   WCI  20
SAINT JOHNS    CLOUDY    24  22  91 SE3       30.17F
WINDOW ROCK    MOCLDY    23  18  81 CALM      30.19S
SHOW LOW       MOCLDY    23  19  86 N6        30.18S WCI  16
$$

AZZ023-201200-
GREATER PHOENIX AREA

CITY           SKY/WX    TMP DP  RH WIND       PRES   REMARKS
PHOENIX        MOCLDY    49  41  74 CALM      30.12F
BUCKEYE          N/A     43  43 100 NE5       30.14S
LUKE AFB       PTCLDY    45  43  93 NE7       30.12F
DEER VALLEY    CLEAR     47  39  74 CALM      30.12F
SCOTTSDALE     CLEAR     45  40  82 CALM      30.14F
MESA-GATEWAY   PTCLDY    41  37  87 CALM      30.16S
$$

AZZ027-028-201200-
SOUTHWEST MARICOPA COUNTY AND PINAL COUNTY

CITY           SKY/WX    TMP DP  RH WIND       PRES   REMARKS
CASA GRANDE    CLEAR     41  37  87 CALM      30.15R
GILA BEND      PTSUNNY   43  38  84 S6        30.14F
$$

AZZ503-504-507>509-201200-
SOUTHEAST ARIZONA

CITY           SKY/WX    TMP DP  RH WIND       PRES   REMARKS
TUCSON         CLEAR     40  35  83 CALM      30.12F
DAVIS-MONTHAN  CLEAR     40  34  79 W7        30.10F
NOGALES        CLEAR     32  29  88 CALM      30.11F
SIERRA VISTA   PTCLDY    34  27  75 CALM      30.13F
DOUGLAS        PTCLDY    24  22  91 NW5       30.15S WCI  18
SAFFORD        MOCLDY    33  31  92 SE6       30.15F WCI  28
$$

AZZ020-021-025-026-031-201200-
SOUTHWEST ARIZONA

CITY           SKY/WX    TMP DP  RH WIND       PRES   REMARKS
YUMA           PTCLDY   N/A N/A N/A CALM      30.12F
$$

CAZ031-033-041-043-047-048-061-201200-
SOUTHERN CALIFORNIA

CITY           SKY/WX    TMP DP  RH WIND       PRES   REMARKS
DOWNTOWN L.A.  CLEAR     52  47  83 CALM      30.16R
L.A. AIRPORT   PTCLDY    53  48  83 CALM      30.16R
SAN DIEGO      MOCLDY    55  49  80 CALM      30.15F
BURBANK        CLEAR     49  43  80 NW3       30.15S
ONTARIO        PTCLDY    49  42  77 CALM      30.15S
RIVERSIDE      PTCLDY    48  44  86 NE6       30.15F
PALM SPRINGS   PTCLDY    54  41  61 NW5       30.14F
EL CENTRO NAS  CLEAR     47  41  80 CALM      30.12F
IMPERIAL       CLEAR     45  39  79 CALM      30.12F
BLYTHE         CLEAR     47  44  90 CALM      30.13F
NEEDLES        CLEAR     45  39  79 CALM      30.15S
$$

NVZ020-UTZ003-201200-
SOUTHERN NEVADA-UTAH

CITY           SKY/WX    TMP DP  RH WIND       PRES   REMARKS
LAS VEGAS      PTCLDY    44  36  73 S10       30.13R
SALT LAKE CITY MOCLDY    39  33  79 CALM      30.13S
$$

NMZ009-TXZ055-201200-
NEW MEXICO-WEST TEXAS

CITY           SKY/WX    TMP DP  RH WIND       PRES   REMARKS
ALBUQUERQUE    PTCLDY    32  23  69 N6        30.18S WCI  26
EL PASO        MOCLDY    33  26  75 CALM      30.13F
$$


........................KEY........................
SKY/WX - SKY CONDITION/WEATHER
TMP    - TEMPERATURE IN FAHRENHEIT
DP     - DEW POINT IN FAHRENHEIT
RH     - RELATIVE HUMIDITY IN PERCENT
WIND   - DIRECTION AND SPEED IN MILES PER HOUR (MPH)
VRB    - VARIABLE WIND DIRECTION
PRES   - MEAN SEA LEVEL PRESSURE IN INCHES OF MERCURY
         F - FALLING PRESSURE   R - RISING PRESSURE
         S - STEADY PRESSURE
VSB    - VISIBILITY IN MILES
HX     - HEAT INDEX IN FAHRENHEIT
WCI    - WIND CHILL INDEX IN FAHRENHEIT
TC     - TEMPERATURE IN CELSIUS WHICH IS ALSO KNOWN AS
         TEMPERATURE IN CENTIGRADE
AFB    - AIR FORCE BASE
         LUKE AFB IS LUKE AIR FORCE BASE
         DAVIS-MONTHAN IS DAVIS-MONTHAN AIR FORCE BASE
NAS    - NAVAL AIR STATION
         EL CENTRO NAS IS EL CENTRO NAVAL AIR STATION
N/A    - NOT AVAILABLE



USA.gov is the U.S. government's official web portal to all federal, state and local government web resources and services.